Weather History for McGrath, AK

Change the Weather History Date:

Monday, November 12, 2012

  Actual Average Record
Temperature  
Mean Temperature 5 °F -  
Max Temperature 18 °F 14 °F 50 °F (2014)
Min Temperature -9 °F -1 °F -33 °F (1989)
Degree Days  
Heating Degree Days 60 58  
Month to date heating degree days 660 663  
Since 1 July heating degree days 3072 3011  
Cooling Degree Days 0    
Month to date cooling degree days 0  
Year to date cooling degree days 4 16  
Moisture  
Dew Point 6 °F    
Average Humidity 0    
Maximum Humidity 0    
Minimum Humidity 0    
Precipitation  
Precipitation T in 0.05 in 0.85 in (1967)
Month to date precipitation 0.59 0.56  
Year to date precipitation 21.09 15.86  
Snow  
Snow 0.40 in 0.60 in 5.30 in (2011)
Month to date snowfall 6.1 7.4  
Since 1 July snowfall 8.4 19.1  
Since 1 September snowfall 8.4 19.1  
Snow Depth 5.00 in    
Sea Level Pressure  
Sea Level Pressure 30.19 in    
Wind  
Wind Speed 1 mph (NNW)    
Max Wind Speed 6 mph    
Max Gust Speed 8 mph    
Visibility 8 miles    
Events Snow    
T = Trace of Precipitation, MM = Missing Value Source: NWS Daily Summary

Daily Weather History Graph

Daily Weather History Graph

Search for Another Location

Airport:

Trip Planner

Search our weather history database for the weather conditions in past years. The results will help you decide how hot, cold, wet, or windy it might be!

Date:

Astronomy

Nov. 12, 2012 Rise Set
Actual Time 9:34 AM AKST 4:38 PM AKST
Civil Twilight 8:39 AM AKST 5:33 PM AKST
Nautical Twilight 7:41 AM AKST 6:30 PM AKST
Astronomical Twilight 6:48 AM AKST 7:24 PM AKST
Moon 8:00 AM AKST (11/12) 3:58 PM AKST (11/12)
Length of Visible Light 8h 54m
Length of Day
7h 03m
Waning Crescent, 2% of the Moon is Illuminated
Nov 12
Waning Crescent
Nov 13
New
Nov 20
First Quarter
Nov 28
Full
Dec 6
Last Quarter

Hourly Weather History & Observations

Time (AKST) Temp. Windchill Dew Point Humidity Pressure Visibility Wind Dir Wind Speed Gust Speed Precip Events Conditions
12:05 AM 17.6 °F - 14.0 °F 86% 30.02 in 10.0 mi Calm Calm - N/A   Overcast
12:53 AM 18.0 °F - 14.0 °F 84% 30.07 in 10.0 mi Calm Calm - N/A   Overcast
1:53 AM 17.1 °F - 14.0 °F 88% 30.08 in 9.0 mi Calm Calm - 0.00 in Snow Light Snow
3:34 AM 15.8 °F - 12.2 °F 86% 30.08 in 9.0 mi Calm Calm - 0.00 in Snow Light Snow
3:53 AM 16.0 °F - 12.9 °F 88% 30.12 in 9.0 mi Calm Calm - 0.00 in Snow Light Snow
4:53 AM 16.0 °F - 12.0 °F 84% 30.13 in 9.0 mi Calm Calm - 0.00 in Snow Light Snow
5:53 AM 16.0 °F - 12.0 °F 84% 30.15 in 9.0 mi Calm Calm - 0.00 in Snow Light Snow
6:53 AM 16.0 °F - 12.0 °F 84% 30.16 in 9.0 mi Calm Calm - 0.00 in Snow Light Snow
7:33 AM 15.8 °F - 10.4 °F 79% 30.14 in 9.0 mi Calm Calm - 0.00 in Snow Light Snow
7:53 AM 16.0 °F - 10.9 °F 81% 30.17 in 9.0 mi Calm Calm - 0.00 in Snow Light Snow
8:53 AM 16.0 °F - 10.9 °F 81% 30.20 in 9.0 mi Calm Calm - 0.00 in Snow Light Snow
9:53 AM 15.1 °F 6.4 °F 10.9 °F 84% 30.22 in 7.0 mi NNE 5.8 mph - 0.00 in Snow Light Snow
10:53 AM 16.0 °F - 10.9 °F 81% 30.23 in 2.5 mi Calm Calm - 0.00 in Snow Light Snow
11:13 AM 15.8 °F - 10.4 °F 79% 30.21 in 3.0 mi Calm Calm - 0.00 in Snow Light Snow
11:53 AM 16.0 °F - 10.9 °F 81% 30.24 in 3.0 mi Calm Calm - 0.00 in Snow Light Snow
12:53 PM 17.1 °F - 12.0 °F 81% 30.25 in 4.0 mi Calm Calm - 0.00 in Snow Light Snow
1:53 PM 17.1 °F 11.7 °F 12.0 °F 81% 30.25 in 5.0 mi NNW 3.5 mph - 0.00 in Snow Light Snow
2:46 PM 15.8 °F - 10.4 °F 79% 30.22 in 8.0 mi Calm Calm - 0.00 in   Mostly Cloudy
2:53 PM 15.1 °F - 10.9 °F 84% 30.25 in 9.0 mi Calm Calm - 0.00 in   Mostly Cloudy
3:08 PM 15.8 °F - 10.4 °F 79% 30.22 in 10.0 mi Calm Calm - N/A   Mostly Cloudy
3:53 PM 12.9 °F 5.2 °F 8.1 °F 81% 30.24 in 10.0 mi NNE 4.6 mph - N/A   Mostly Cloudy
5:53 PM 5.0 °F - 1.0 °F 84% 30.24 in 10.0 mi Calm Calm - N/A   Clear
6:53 PM -2.0 °F - -7.1 °F 79% 30.24 in 10.0 mi Calm Calm - N/A   Clear
7:53 PM -4.0 °F - -9.0 °F 79% 30.24 in 10.0 mi Calm Calm - N/A   Clear
8:53 PM -7.1 °F - -11.9 °F 79% 30.24 in 10.0 mi Calm Calm - N/A   Clear
9:53 PM -9.0 °F - -14.1 °F 79% 30.24 in 10.0 mi Calm Calm - N/A   Clear
10:53 PM -6.0 °F - -11.0 °F 79% 30.22 in 10.0 mi Calm Calm - N/A   Clear
11:53 PM -2.0 °F -10.1 °F -7.1 °F 79% 30.22 in 10.0 mi West 3.5 mph - N/A   Clear